Location: México DF
(19.4326°N, 99.1332°W)
Time: 03:02:22
(UTC+00:00)

ISS - Pass Details

Date: 09 May 2026
Orbit: 414 x 424 km, 51.6° (Epoch: 15 May)

Event Time Altitude Azimuth Distance (km) Brightness Sun altitude
Rises 00:54:51 0° 201° (SSW) 2,334 0.1 0.8°
Reaches altitude 10° 00:57:04 10° 191° (S) 1,473 -1.0 0.3°
Maximum altitude 01:00:03 32° 126° (SE) 732 -3.0 -0.4°
Drops below altitude 10° 01:03:03 10° 61° (ENE) 1,475 -1.4 -1.1°
Sets 01:05:16 0° 51° (NE) 2,338 -0.3 -1.6°
